ノヴィチョーノク-ギェルケ彗星

408P/Novichonok-Gerke (2022)

English version
Home page
Updated on February 27, 2024

---------------------------------------------------------------------

・ プロフィール

符号 408P/2020 M7
検出日 2020年6月20日
検出光度 21.9等
検出者 Pan-STARRS 1 telescope (Haleakala)

・ 写真集

・ 軌道要素

Epoch 2023 Sept. 13.0 TT = JDT 2460200.5
T 2022 Oct. 5.41083 TT                                  Rudenko
q   3.4679629            (2000.0)            P               Q
n   0.09543554     Peri.  226.52373     +0.56643262     -0.82231270
a   4.7423756      Node   189.44093     +0.81885901     +0.56903283
e   0.2687288      Incl.   19.35691     +0.09286547     -0.00186202
P  10.3
>From 1496 observations 2011 Sept. 7-2023 Dec. 8, mean residual 0".6.

・ 光度変化

        m1 = 0.3 + 5 logΔ + 25.0 log r(t - 50)

---------------------------------------------------------------------

軌道要素はM.P.E.C. 2023-X256に掲載されたものです。
光度グラフはComet for Windowsで作成したものです。

---------------------------------------------------------------------

Copyright(C) Seiichi Yoshida (comet@aerith.net). All rights reserved.